Regional Weather Roundup
Issued by NWS

Home | Current Version | Previous Version | Graphics & Text | Print | Product List | Glossary Off
Versions: 1 2 3 4 5 6 7 8 9 10 11 12 13 14 15 16 17 18 19 20 21 22 23 24 25 26 27 28 29 30 31 32 33 34 35 36 37 38 39 40 41 42 43 44 45 46 47 48 49 50

000
ASUS43 KDMX 160906
RWRIA

WEATHER ROUNDUP FOR IOWA
NATIONAL WEATHER SERVICE DES MOINES IA
400 AM CDT MON OCT 16 2017

NOTE: "FAIR" INDICATES FEW OR NO CLOUDS BELOW 12,000 FEET WITH NO
SIGNIFICANT WEATHER AND/OR OBSTRUCTIONS TO VISIBILITY.

* - THESE STATIONS ARE NOT NWS STATIONS...THUS NOT UNDER NWS
QUALITY CONTROL.  THEY ALSO DO NOT REPORT WEATHER SUCH
AS PRECIPITATION OR FOG.

IAZ001>003-012>014-020>022-031>034-043>046-161000-
   NORTHWEST IOWA

CITY           SKY/WX    TMP DP  RH WIND       PRES   REMARKS
CARROLL *      CLEAR     43  39  87 W8        30.29F
CHEROKEE *     CLEAR     33  32  99 SW3       30.30R
DENISON *      CLEAR     34  32  93 CALM      30.32F
LE MARS *      CLEAR     34  32  93 CALM      30.29F
ORANGE CITY *  CLEAR     37  36  93 CALM      30.28F
SHELDON *      CLEAR     30  28  93 CALM      30.26F
SIOUX CITY     CLEAR     36  34  92 CALM      30.31S
SPENCER        CLEAR     35  32  88 W3        30.28S
STORM LAKE *   CLEAR     39  34  81 W8        30.28F WCI  34
$$

IAZ055>058-069>071-079>083-090>094-161000-
   SOUTHWEST IOWA

CITY           SKY/WX    TMP DP  RH WIND       PRES   REMARKS
ATLANTIC *     CLEAR     36  36 100 CALM      30.32F
AUDUBON *      CLEAR     34  30  86 CALM      30.32S
CLARINDA *       N/A     36  36 100 CALM      30.36F
COUNCIL BLFS * CLEAR     43  37  81 SW7       30.32F
CRESTON *      CLEAR     39  34  81 W6        30.33F WCI  35
HARLAN  *      CLEAR     36  36 100 CALM      30.35S
LAMONI         CLEAR     42  34  73 W8        30.33S
RED OAK *      CLEAR     36  36 100 CALM      30.34S
SHENANDOAH *   CLEAR     36  34  93 CALM      30.35F
$$

IAZ047>049-059>061-072>074-084-161000-
   CENTRAL IOWA

CITY           SKY/WX    TMP DP  RH WIND       PRES   REMARKS
AMES           CLEAR     36  35  96 CALM      30.28F
ANKENY *       CLEAR     37  34  87 CALM      30.31S
BOONE *        CLEAR     39  36  87 SW8       30.28S WCI  34
CHARITON *     CLEAR     41  36  81 W7        30.31S
DES MOINES     CLEAR     41  35  79 SW5       30.30S
GRINNELL*      CLEAR     38  34  86 SW5       30.30S WCI  34
KNOXVILLE *    CLEAR     39  34  81 W7        30.29S WCI  34
MARSHALLTOWN   CLEAR     37  34  89 CALM      30.27F
NEWTON *       CLEAR     39  36  87 W7        30.29F WCI  34
PELLA *        CLEAR     43  36  75 W6        30.31S
PERRY *          N/A     37  36  96 W6        30.30S WCI  32
$$

IAZ004>006-015-016-023>025-035-036-161000-
   NORTH CENTRAL IOWA

CITY           SKY/WX    TMP DP  RH WIND       PRES   REMARKS
ALGONA *       CLEAR     36  36 100 W7        30.26S WCI  30
CLARION *      CLEAR     34  34 100 SW6       30.27S WCI  29
ESTHERVILLE    CLEAR     35  34  96 W6        30.26S WCI  30
FORT DODGE *   CLEAR     37  34  89 CALM      30.28S
MASON CITY     CLEAR     34  32  92 CALM      30.27S
FOREST CITY *    N/A     34  34 100 CALM      30.26S
WEBSTER CITY * CLEAR     34  32  93 CALM      30.26S
IOWA FALLS *     N/A     37  34  89 CALM      30.28F
$$

IAZ007>011-017>019-026>030-037>042-050>054-066-161000-
   NORTHEAST IOWA

CITY           SKY/WX    TMP DP  RH WIND       PRES   REMARKS
CEDAR RAPIDS     N/A     39  34  82 W5        30.27S
CHARLES CITY * CLEAR     37  36  93 W6        30.26S WCI  33
CLINTON *      CLEAR     39  37  92 SW3       30.29S
DECORAH *      CLEAR     39  36  87 CALM      30.23S
DUBUQUE        CLEAR     36  35  96 SW6       30.25S WCI  31
MONTICELLO *   CLEAR     37  36  93 CALM      30.27R
OELWEIN *      CLEAR     36  36 100 W6        30.26F WCI  31
WATERLOO       CLEAR     36  33  89 W3        30.26S
$$

IAZ064-065-067-068-078-161000-
   EAST CENTRAL IOWA

CITY           SKY/WX    TMP DP  RH WIND       PRES   REMARKS
DAVENPORT      CLEAR     41  38  89 SW5       30.30S
IOWA CITY      CLEAR     38  34  85 CALM      30.30F
MUSCATINE *    CLEAR     43  37  81 SW7       30.30F
QUAD CITIES    CLEAR     42  38  85 SW3       30.29S
$$

IAZ062-063-075>077-085>089-095>099-161000-
   SOUTHEAST IOWA

CITY           SKY/WX    TMP DP  RH WIND       PRES   REMARKS
BURLINGTON     CLEAR     40  40 100 SW5       30.31F
FAIRFIELD *    CLEAR     39  36  87 SW5       30.30F
FORT MADISON * CLEAR     41  39  93 SW5       30.32F
KEOKUK *       CLEAR     39  39 100 SW3       30.32S
OSKALOOSA *      N/A     37  34  89 W6        30.30S WCI  32
OTTUMWA        CLEAR     39  34  82 W8        30.30S WCI  33
WASHINGTON *   CLEAR     39  37  93 SW7       30.31S WCI  34
$$

ABBREVIATIONS USED IN REMARKS
   TC - TEMPERATURES IN CELSIUS
  WCI - WIND CHILL INDEX
   HX - HEAT INDEX
  VSB - VISIBILITY
$$





USA.gov is the U.S. government's official web portal to all federal, state and local government web resources and services.